When you browse on this site, cookies collect data to enhance your experience and personalize the content and advertising you see.
Visit our Privacy Policy to learn more. By continuing to use the site, you agree to this use of cookies and data.
  • In Czech Republic
  • List of Countries
  • For 7 days
  • Water Temperature
  • Satellite Maps
  • Weather Map
  • Weather Widgets
  • user-avatar
    Login

    Hourly Weather Harbin

    Today, 26 June, Wednesday

    Time Temperature Precipitation Wind Pressure Humidity
    00:00 +26°C° 0 mm 5 mps 742 mmHg 56%
    01:00 +25°C° 0 mm 5 mps 742 mmHg 55%
    02:00 +25°C° 0 mm 5 mps 742 mmHg 53%
    03:00 +24°C° 0 mm 6 mps 742 mmHg 54%
    04:00 +23°C° 0 mm 6 mps 742 mmHg 54%
    05:00 +23°C° 0 mm 6 mps 742 mmHg 55%
    06:00 +23°C° 0 mm 7 mps 741 mmHg 56%
    07:00 +24°C° 0 mm 7 mps 741 mmHg 56%
    08:00 +24°C° 0 mm 7 mps 741 mmHg 56%
    09:00 +27°C° 0 mm 7 mps 741 mmHg 52%
    10:00 +28°C° 0 mm 7 mps 740 mmHg 49%
    11:00 +30°C° 0 mm 7 mps 740 mmHg 45%
    12:00 +32°C° 0 mm 7 mps 740 mmHg 43%
    13:00 +33°C° 0 mm 8 mps 739 mmHg 41%
    14:00 +34°C° 0 mm 8 mps 739 mmHg 39%
    15:00 +33°C° 0 mm 7 mps 738 mmHg 40%
    16:00 +33°C° 0 mm 7 mps 738 mmHg 41%
    17:00 +33°C° 0 mm 6 mps 738 mmHg 42%
    18:00 +32°C° 0.1 mm 6 mps 738 mmHg 44%
    19:00 +29°C° 0.1 mm 6 mps 738 mmHg 46%
    20:00 +28°C° 0.1 mm 6 mps 738 mmHg 47%
    21:00 +27°C° 0.1 mm 6 mps 738 mmHg 50%
    22:00 +26°C° 0.1 mm 6 mps 738 mmHg 52%
    23:00 +25°C° 0.1 mm 5 mps 738 mmHg 54%

    Tomorrow, 27 June, Thursday

    Time Temperature Precipitation Wind Pressure Humidity
    00:00 +23°C° 0.3 mm 5 mps 738 mmHg 57%
    01:00 +23°C° 0.3 mm 4 mps 737 mmHg 60%
    02:00 +22°C° 0.3 mm 4 mps 737 mmHg 63%
    03:00 +22°C° 0.1 mm 4 mps 737 mmHg 64%
    04:00 +22°C° 0.1 mm 4 mps 737 mmHg 65%
    05:00 +22°C° 0.1 mm 4 mps 737 mmHg 66%
    06:00 +23°C° 0 mm 4 mps 737 mmHg 63%
    07:00 +25°C° 0 mm 4 mps 737 mmHg 61%
    08:00 +26°C° 0 mm 4 mps 737 mmHg 58%
    09:00 +27°C° 0 mm 4 mps 737 mmHg 54%
    10:00 +28°C° 0 mm 3 mps 737 mmHg 50%
    11:00 +30°C° 0 mm 3 mps 737 mmHg 46%
    12:00 +31°C° 0 mm 3 mps 736 mmHg 44%
    13:00 +31°C° 0 mm 3 mps 736 mmHg 42%
    14:00 +32°C° 0 mm 2 mps 736 mmHg 40%
    15:00 +32°C° 0 mm 2 mps 736 mmHg 42%
    16:00 +32°C° 0 mm 2 mps 735 mmHg 43%
    17:00 +32°C° 0 mm 2 mps 735 mmHg 45%
    18:00 +29°C° 0 mm 2 mps 735 mmHg 53%
    19:00 +26°C° 0 mm 3 mps 736 mmHg 62%
    20:00 +24°C° 0 mm 3 mps 736 mmHg 71%
    21:00 +22°C° 0 mm 3 mps 736 mmHg 73%
    22:00 +20°C° 0 mm 3 mps 736 mmHg 76%
    23:00 +19°C° 0 mm 3 mps 736 mmHg 78%

    Day after tomorrow, 28 June, Friday

    Time Temperature Precipitation Wind Pressure Humidity
    00:00 +19°C° 0 mm 2 mps 736 mmHg 80%
    01:00 +19°C° 0 mm 2 mps 736 mmHg 81%
    02:00 +18°C° 0 mm 2 mps 736 mmHg 83%
    03:00 +18°C° 0 mm 2 mps 736 mmHg 83%
    04:00 +19°C° 0 mm 2 mps 736 mmHg 84%
    05:00 +19°C° 0 mm 2 mps 736 mmHg 84%
    06:00 +20°C° 0.1 mm 3 mps 736 mmHg 81%
    07:00 +21°C° 0.1 mm 4 mps 736 mmHg 78%
    08:00 +22°C° 0.1 mm 4 mps 736 mmHg 76%
    09:00 +23°C° 0.7 mm 4 mps 736 mmHg 74%
    10:00 +24°C° 0.7 mm 3 mps 736 mmHg 73%
    11:00 +24°C° 0.7 mm 3 mps 736 mmHg 72%
    12:00 +25°C° 0.5 mm 3 mps 735 mmHg 67%
    13:00 +26°C° 0.5 mm 3 mps 735 mmHg 63%
    14:00 +27°C° 0.5 mm 3 mps 735 mmHg 59%
    15:00 +25°C° 1.7 mm 4 mps 735 mmHg 68%
    16:00 +22°C° 1.7 mm 4 mps 734 mmHg 78%
    17:00 +21°C° 1.7 mm 4 mps 734 mmHg 88%
    18:00 +20°C° 0.7 mm 4 mps 734 mmHg 86%
    19:00 +20°C° 0.7 mm 4 mps 734 mmHg 84%
    20:00 +20°C° 0.7 mm 4 mps 734 mmHg 83%
    21:00 +20°C° 1.1 mm 4 mps 734 mmHg 85%
    22:00 +20°C° 1.1 mm 4 mps 734 mmHg 87%
    23:00 +19°C° 1.1 mm 3 mps 734 mmHg 89%

    29 June, Saturday

    Time Temperature Precipitation Wind Pressure Humidity
    00:00 +19°C° 0.1 mm 3 mps 734 mmHg 90%
    01:00 +19°C° 0.1 mm 3 mps 734 mmHg 91%
    02:00 +19°C° 0.1 mm 3 mps 734 mmHg 92%
    03:00 +19°C° 0.6 mm 2 mps 734 mmHg 91%
    04:00 +19°C° 0.6 mm 2 mps 734 mmHg 91%
    05:00 +20°C° 0.6 mm 1 mps 734 mmHg 91%
    06:00 +21°C° 0 mm 1 mps 734 mmHg 85%
    07:00 +21°C° 0 mm 2 mps 734 mmHg 80%
    08:00 +23°C° 0 mm 2 mps 735 mmHg 75%
    09:00 +24°C° 0 mm 2 mps 734 mmHg 69%
    10:00 +26°C° 0 mm 2 mps 734 mmHg 63%
    11:00 +27°C° 0 mm 2 mps 734 mmHg 57%
    12:00 +27°C° 0.1 mm 2 mps 734 mmHg 55%
    13:00 +28°C° 0.1 mm 2 mps 734 mmHg 54%
    14:00 +29°C° 0.1 mm 1 mps 733 mmHg 52%
    15:00 +27°C° 1.9 mm 1 mps 733 mmHg 61%
    16:00 +26°C° 1.9 mm 1 mps 733 mmHg 69%
    17:00 +24°C° 1.9 mm 1 mps 733 mmHg 78%
    18:00 +23°C° 0.5 mm 2 mps 734 mmHg 80%
    19:00 +21°C° 0.5 mm 2 mps 734 mmHg 82%
    20:00 +21°C° 0.5 mm 3 mps 734 mmHg 84%
    21:00 +20°C° 0.1 mm 3 mps 734 mmHg 85%
    22:00 +20°C° 0.1 mm 4 mps 734 mmHg 86%
    23:00 +20°C° 0.1 mm 4 mps 734 mmHg 87%

    30 June, Sunday

    Time Temperature Precipitation Wind Pressure Humidity
    00:00 +19°C° 0.3 mm 4 mps 734 mmHg 89%
    01:00 +19°C° 0.3 mm 4 mps 734 mmHg 90%
    02:00 +19°C° 0.3 mm 4 mps 733 mmHg 91%
    03:00 +18°C° 1 mm 4 mps 733 mmHg 92%
    04:00 +17°C° 1 mm 5 mps 733 mmHg 92%
    05:00 +17°C° 1 mm 5 mps 733 mmHg 93%
    06:00 +17°C° 3 mm 5 mps 733 mmHg 93%
    07:00 +17°C° 3 mm 5 mps 734 mmHg 94%
    08:00 +17°C° 3 mm 5 mps 734 mmHg 95%
    09:00 +18°C° 2.5 mm 4 mps 734 mmHg 94%
    10:00 +18°C° 2.5 mm 4 mps 734 mmHg 94%
    11:00 +18°C° 2.5 mm 4 mps 734 mmHg 94%
    12:00 +18°C° 0.5 mm 4 mps 734 mmHg 93%
    13:00 +19°C° 0.6 mm 4 mps 734 mmHg 92%
    14:00 +19°C° 0.6 mm 4 mps 734 mmHg 91%
    15:00 +19°C° 1.1 mm 4 mps 734 mmHg 91%
    16:00 +19°C° 1.1 mm 4 mps 734 mmHg 91%
    17:00 +18°C° 1.1 mm 4 mps 734 mmHg 92%
    18:00 +18°C° 0.3 mm 4 mps 735 mmHg 92%
    19:00 +18°C° 0.3 mm 4 mps 735 mmHg 93%
    20:00 +18°C° 0.3 mm 4 mps 735 mmHg 94%
    21:00 +18°C° 0.2 mm 3 mps 735 mmHg 94%
    22:00 +17°C° 0.2 mm 3 mps 735 mmHg 94%
    23:00 +17°C° 0.2 mm 3 mps 735 mmHg 95%

    1 July, Monday

    Time Temperature Precipitation Wind Pressure Humidity
    00:00 +17°C° 0.2 mm 3 mps 735 mmHg 95%
    01:00 +17°C° 0.2 mm 3 mps 735 mmHg 95%
    02:00 +17°C° 0.2 mm 3 mps 735 mmHg 95%
    03:00 +17°C° 0.2 mm 3 mps 735 mmHg 95%
    04:00 +17°C° 0.2 mm 3 mps 735 mmHg 95%
    05:00 +17°C° 0.2 mm 2 mps 735 mmHg 95%
    06:00 +17°C° 0.1 mm 2 mps 736 mmHg 95%
    07:00 +17°C° 0.1 mm 2 mps 736 mmHg 94%
    08:00 +17°C° 0.1 mm 2 mps 736 mmHg 93%
    09:00 +18°C° 0.2 mm 2 mps 736 mmHg 92%
    10:00 +18°C° 0.2 mm 2 mps 737 mmHg 91%
    11:00 +18°C° 0.2 mm 2 mps 737 mmHg 90%
    12:00 +18°C° 0.1 mm 3 mps 737 mmHg 89%
    13:00 +18°C° 0.1 mm 3 mps 737 mmHg 88%
    14:00 +19°C° 0.1 mm 3 mps 736 mmHg 87%
    15:00 +19°C° 0 mm 3 mps 736 mmHg 87%
    16:00 +19°C° 0 mm 3 mps 736 mmHg 86%
    17:00 +19°C° 0 mm 3 mps 736 mmHg 86%
    18:00 +18°C° 0 mm 3 mps 736 mmHg 88%
    19:00 +18°C° 0 mm 2 mps 737 mmHg 90%
    20:00 +17°C° 0 mm 2 mps 737 mmHg 93%
    21:00 +17°C° 0 mm 2 mps 737 mmHg 93%
    22:00 +17°C° 0 mm 2 mps 737 mmHg 94%
    23:00 +18°C° 0 mm 1 mps 737 mmHg 95%
    Show more